Regional Weather Roundup
Issued by NWS

Home | Current Version | Previous Version | Text Only | Print | Product List | Glossary On
Versions: 1 2 3 4 5 6 7 8 9 10 11 12 13 14 15 16 17 18 19 20 21 22 23 24 25 26 27 28 29 30 31 32 33 34 35 36 37 38 39 40 41 42 43 44 45 46
000
ASUS42 KFFC 221203
RWRGA
WEATHER ROUNDUP FOR GEORGIA
NATIONAL WEATHER SERVICE PEACHTREE CITY GA
700 AM EST MON DEC 22 2014

NOTE: "FAIR" INDICATES FEW OR NO CLOUDS BELOW 12,000 FEET WITH NO
SIGNIFICANT WEATHER AND/OR OBSTRUCTIONS TO VISIBILITY.

* = USE WITH CAUTION. THE STATIONS MARKED WITH AN ASTERISK MAY NOT
REPORT WEATHER SUCH AS PRECIPITATION, FOG, OR THUNDER AND ARE NOT
QUALITY CONTROLLED BY NWS.

THE REMARK "TC" DENOTES TEMPERATURE READING IN DEGREES CELSIUS.

GAZ001>058-221300-
NORTH GEORGIA

CITY           SKY/WX    TMP DP  RH WIND       PRES   REMARKS
ATLANTA        DRZL/FOG  45  43  93 E9        30.03R VSB 1/2
6HR MIN TEMP:  45; 6HR MAX TEMP:  47; 6HR PCP: TRACE;

ATHENS         CLOUDY    43  42  97 E9        30.06S FOG
6HR MIN TEMP:  43; 6HR MAX TEMP:  45;

CHAMBLEE       CLOUDY    44  42  93 VRB5      30.06R FOG
6HR MIN TEMP:  43; 6HR MAX TEMP:  46; 6HR PCP:  0.01;

PEACHTREE CITY CLOUDY    47  45  93 E6        30.04R FOG
6HR MIN TEMP:  47; 6HR MAX TEMP:  48;

ROME           CLOUDY    47  44  90 E5        30.03R
6HR MIN TEMP:  46; 6HR MAX TEMP:  50;

WEST ATLANTA   CLOUDY    45  43  93 NE8       30.04R
6HR MIN TEMP:  45; 6HR MAX TEMP:  48; 6HR PCP: TRACE;

GAINESVILLE    CLOUDY    42  41  96 E12       30.07R FOG
6HR MIN TEMP:  42; 6HR MAX TEMP:  44; 6HR PCP: TRACE;

CARTERSVILLE   CLOUDY    46  41  82 E9        30.04R
6HR MIN TEMP:  46; 6HR MAX TEMP:  49;



CITY           SKY/WX    TMP DP  RH WIND       PRES   REMARKS
DALTON*        CLOUDY    46  43  87 CALM      30.02S
LAWRENCEVILLE* LGT RAIN  43  36  75 E6        30.05  FOG
MARIETTA       DRIZZLE   44  44  99 E10       30.04R FOG
KENNESAW*      DRIZZLE   45  41  87 E10G18    30.06  FOG
$$

GAZ059>098-102>109-221300-
CENTRAL GEORGIA

CITY           SKY/WX    TMP DP  RH WIND       PRES   REMARKS
AUGUSTA-BUSH   CLOUDY    46  44  93 NE7       30.08R FOG
6HR MIN TEMP:  46; 6HR MAX TEMP:  47; 6HR PCP:  0.03;

AUGUSTA-DANIEL CLOUDY    47  45  93 NE8       30.08R FOG
6HR MIN TEMP:  47; 6HR MAX TEMP:  48; 6HR PCP:  0.01;

COLUMBUS       CLOUDY    47  47 100 E7        30.01R FOG
6HR MIN TEMP:  47; 6HR MAX TEMP:  49;

MACON          CLOUDY    47  47 100 E6        30.04R FOG
6HR MIN TEMP:  47; 6HR MAX TEMP:  47; 6HR PCP:  0.01;

ROBINS AFB     CLOUDY    48  47  97 NE2       30.04R


CITY           SKY/WX    TMP DP  RH WIND       PRES   REMARKS
LAGRANGE*      CLOUDY    51  50  98 CALM      30.02R FOG
SYLVANIA*      RAIN      46  46 100 NE6       30.07R
MILLEDGEVILLE* CLOUDY    46  46 100 NE3       30.04F FOG
$$

GAZ099>101-110>166-221300-
SOUTH GEORGIA

CITY           SKY/WX    TMP DP  RH WIND       PRES   REMARKS
SAVANNAH       FOG       48  47  96 NE6       30.05S VSB 1/2
6HR MIN TEMP:  48; 6HR MAX TEMP:  49; 6HR PCP:  0.01;

VALDOSTA       FOG       52  52 100 N5        30.00R VSB 1/2
6HR MIN TEMP:  52; 6HR MAX TEMP:  53; 6HR PCP: TRACE;

ALMA           FOG       49  48  97 N5        30.02R VSB 1/2
6HR MIN TEMP:  48; 6HR MAX TEMP:  49; 6HR PCP:  0.01;

ST SIMONS      CLOUDY    55  54  96 N3        30.02R FOG
6HR MIN TEMP:  53; 6HR MAX TEMP:  55; 6HR PCP:  0.02;

FT STEWART     CLOUDY    48  47  96 NE5       30.03R FOG
ALBANY         LGT RAIN  48  47  96 NE7       30.02S
HUNTER AFB     CLOUDY    48  48 100 NE5       30.03R FOG
MOODY AFB      LGT RAIN  50  50 100 NE6       29.99R VSB 3/4
BRUNSWICK      CLOUDY    54  52  94 CALM      30.03S


CITY           SKY/WX    TMP DP  RH WIND       PRES   REMARKS
BAINBRIDGE*    HVY RAIN  54  52  94 E7        29.98S
MOULTRIE*      RAIN      50  50 100 NE3       30.00R
VIDALIA*       CLOUDY    46  46 100 NE6       30.04S FOG
WAYCROSS*      FOG       53  53 100 NE5       30.02R VSB 1/2
DOUGLAS*       LGT RAIN  50  48  93 NE6       30.03S VSB 1/2
$$


USA.gov is the U.S. government's official web portal to all federal, state and local government web resources and services.